EW9824 Weather Reports


time (UTC)temp
F
wind
direction
speed
knots
gust
knots
rain 1hr
in
rain 24hr
in
rain mn
in
humidity
%
barometer
mb
20260903220033 62 313 2.6 6.1 0.00 0.28 0.01 62 1013.0
20260903214530 62 2 3.5 7.0 0.00 0.30 0.01 63 1013.0
20260903211532 61 318 3.5 7.0 0.00 0.32 0.01 65 1013.1
20260903204531 62 344 4.3 9.6 0.00 0.35 0.01 69 1013.2
20260903203030 61 348 4.3 9.6 0.00 0.36 0.01 71 1013.2
20260903201530 60 348 4.3 10.4 0.00 0.36 0.01 72 1013.3
20260903200104 61 349 5.2 12.2 0.00 0.36 0.01 70 1013.5
20260903193031 60 331 5.2 11.3 0.00 0.36 0.01 74 1013.6
20260903191531 59 334 5.2 10.4 0.00 0.36 0.01 75 1013.9
20260903184529 58 360 4.3 9.6 0.00 0.36 0.01 76 1014.2
20260903183029 58 356 3.5 7.0 0.00 0.36 0.01 76 1014.1
20260903181532 58 354 3.5 7.8 0.00 0.36 0.01 75 1014.2
20260903180032 57 351 3.5 7.8 0.00 0.36 0.01 76 1014.1
20260903174605 56 335 3.5 7.8 0.00 0.36 0.01 81 1014.1
20260903173102 54 336 3.5 7.8 0.00 0.36 0.01 89 1014.1
20260903171530 52 359 1.7 3.5 0.00 0.36 0.01 93 1014.2
20260903170031 51 6 1.7 4.3 0.00 0.36 0.01 95 1014.2
20260903164529 50 342 0.9 3.5 0.00 0.36 0.01 95 1014.3
20260903163031 50 342 0.9 3.5 0.00 0.36 0.01 96 1014.1
20260903161527 50 271 1.7 4.3 0.00 0.36 0.01 96 1014.2
20260903160038 50 99 0.9 2.6 0.00 0.36 0.01 97 1014.3
20260903154529 49 83 0.9 4.3 0.00 0.36 0.01 97 1014.3
20260903151529 47 69 4.3 12.2 0.00 0.36 0.01 98 1014.1
20260903150030 47 126 3.5 10.4 0.00 0.36 0.01 98 1014.3
20260903144530 47 222 1.7 7.0 0.00 0.36 0.01 98 1013.9
20260903143030 46 133 3.5 7.0 0.00 0.36 0.01 98 1013.8
20260903141529 45 171 1.7 6.1 0.00 0.36 0.01 98 1013.8
20260903140109 45 281 0.0 2.6 0.00 0.36 0.01 98 1013.7
20260903134531 45 210 0.9 4.3 0.00 0.36 0.01 98 1013.5
20260903133030 45 141 3.5 7.0 0.00 0.36 0.01 98 1013.4
20260903131530 44 195 1.7 4.3 0.00 0.36 0.01 98 1013.4
20260903130029 44 145 0.9 4.3 0.00 0.36 0.01 98 1013.3
20260903123145 44 165 1.7 3.5 0.00 0.36 0.01 98 1013.4
20260903121530 44 156 2.6 5.2 0.00 0.36 0.01 98 1013.3
20260903120031 44 12 2.6 4.3 0.01 0.36 0.01 98 1013.3
20260903114607 45 168 1.7 6.1 0.01 0.36 0.01 98 1013.4
20260903111531 43 152 1.7 7.0 0.01 0.36 0.00 97 1013.3
20260903110031 42 204 1.7 6.1 0.00 0.35 0.00 97 1013.0
20260903104532 43 53 0.9 2.6 0.00 0.35 0.00 97 1013.0
20260903103031 44 120 1.7 3.5 0.00 0.35 0.00 97 1012.9
20260903101530 44 196 0.9 3.5 0.00 0.35 0.00 97 1012.8
20260903100031 45 176 1.7 4.3 0.00 0.35 0.00 97 1012.9
20260903093031 46 249 0.9 5.2 0.00 0.35 0.00 97 1013.0
20260903091530 46 155 2.6 6.1 0.00 0.35 0.00 97 1012.9
20260903090030 46 169 2.6 6.1 0.00 0.35 0.00 97 1013.1
20260903084529 46 153 1.7 3.5 0.00 0.35 0.00 97 1013.1
20260903083108 46 160 1.7 3.5 0.00 0.35 0.00 97 1013.0
20260903081531 46 168 2.6 6.1 0.00 0.35 0.00 97 1013.0
20260903080030 46 164 1.7 4.3 0.00 0.35 0.00 97 1012.9
20260903074532 46 166 1.7 5.2 0.00 0.35 0.00 96 1012.7
20260903073031 47 205 0.0 2.6 0.00 0.35 0.00 96 1012.5
20260903071530 47 158 0.9 3.5 0.00 0.35 0.00 96 1012.6
20260903070029 46 129 0.0 2.6 0.00 0.35 0.00 96 1012.5
20260903064603 47 306 0.0 2.6 0.00 0.35 0.35 95 1012.5
20260903061531 47 45 0.9 3.5 0.00 0.35 0.35 95 1012.8
20260903060031 48 309 0.9 3.5 0.00 0.35 0.35 94 1012.8
20260903054531 49 76 2.6 5.2 0.00 0.35 0.35 94 1012.7
20260903053029 49 15 1.7 3.5 0.00 0.35 0.35 93 1012.6
20260903051603 50 36 2.6 7.0 0.00 0.35 0.35 94 1012.5
20260903050030 50 25 2.6 5.2 0.00 0.35 0.35 94 1012.6
20260903044530 50 24 3.5 7.0 0.00 0.35 0.35 95 1012.5
20260903043029 50 101 1.7 5.2 0.00 0.35 0.35 96 1012.3
20260903041531 51 120 1.7 6.1 0.01 0.35 0.35 96 1012.2
20260903040029 51 135 0.9 5.2 0.03 0.35 0.35 95 1011.9
20260903034530 51 145 1.7 3.5 0.05 0.35 0.35 95 1011.9
20260903033031 52 103 0.9 3.5 0.08 0.35 0.34 95 1011.8
20260903031531 53 93 1.7 4.3 0.09 0.34 0.32 95 1011.9
20260903030031 54 156 1.7 4.3 0.10 0.32 0.30 96 1011.9
20260903024606 54 119 2.6 6.1 0.10 0.30 0.27 96 1011.7
20260903023106 55 48 0.9 4.3 0.07 0.27 0.25 96 1011.7
20260903021528 56 331 0.9 4.3 0.06 0.25 0.22 96 1011.6
20260903020030 56 300 3.5 7.8 0.05 0.22 0.20 96 1011.1
20260903014531 56 305 2.6 5.2 0.04 0.20 0.20 95 1010.6
20260903013027 56 263 0.0 3.5 0.05 0.20 0.19 95 1010.7
20260903011531 56 239 1.7 2.6 0.06 0.19 0.17 95 1010.8
20260903010031 56 256 1.7 4.3 0.06 0.17 0.16 95 1010.8
20260903004531 57 276 2.6 6.1 0.06 0.16 0.15 94 1010.9
20260903003032 57 317 2.6 6.1 0.05 0.15 0.13 94 1010.8
20260903001606 57 299 1.7 5.2 0.03 0.13 0.11 93 1010.9
20260903000112 57 275 0.0 3.5 0.01 0.11 0.10 94 1010.9
20260902234540 57 296 1.7 4.3 0.01 0.10 0.10 93 1010.8
20260902231644 57 348 2.6 6.1 0.02 0.10 0.10 93 1011.1
20260902230034 56 319 1.7 4.3 0.03 0.10 0.09 93 1011.2
20260902224528 57 7 2.6 4.3 0.03 0.09 0.08 93 1011.0
20260902223032 56 324 1.7 5.2 0.03 0.08 0.08 92 1010.9
20260902221532 57 314 3.5 7.8 0.04 0.08 0.07 91 1010.9